Content
SEND FEEDBACK

Daily
Averages
Monthly
Summary
Germany

LEIPHEIM, GERMANY


Home > Europe > Germany
Elevation: 1566 feet     Latitude: 48 26N     Longitude: 010 14E

WEATHER
 
SELECT A DAY
Number of Records: 53,302;   Date Range: 9/3/98 - 9/19/14
 
SHARE

PRINT THIS DATA

[ ← Previous Day ]
WEATHER ALMANAC - JANUARY 31, 2013
[ Next Day → ]
[ °C ]   °F
Weather ElementAverageHighLow
Temperature43.5 °F46.4 °F (1:20 pm)39.2 °F (7:20 am)
Dewpoint35.1 °F39.2 °F (9:20 pm)32 °F (3:20 pm)
Humidity72.9 %87 % (4:20 am)57 % (3:20 pm)
Barometer30.09 in30.18 in (7:20 am)30.01 in (4:20 pm)
Wind Speed15.4 mph25.3 mph (7:20 pm)
Wind Gust39.1 mph (7:20 pm)
Weather ElementAverage
Visibility6.2 mi
Wind DirectionWSW (239.6 °)

Weather ElementTotal
Precipitation---
Heating Degree Days22.2 (Base 65)
Averaged from 23 records on January 31, 2013
WEATHER CONDITIONS BREAKOUT
WIND DIRECTION BREAKOUT
WEATHER BY HOUR - JANUARY 31, 2013
[ °C ]   °F
Local TimeTemperatureDewpointHumidityBarometerVisibilityWind DirectionWind SpeedGust SpeedPrecipitationEventsConditions
1:20 AM42.8 °F37.4 °F81 %30.15 in6.2 miWSW (250°)10.4 mphPartly Cloudy
2:20 AM42.8 °F35.6 °F76 %30.15 in6.2 miWSW (240°)13.8 mphScattered Clouds
3:20 AM42.8 °F35.6 °F76 %30.15 in6.2 miSW (230°)12.7 mphScattered Clouds
4:20 AM41.0 °F37.4 °F87 %30.15 in6.2 miWSW (240°)15.0 mphPartly Cloudy
5:20 AM41.0 °F35.6 °F81 %30.15 in6.2 miWSW (240°)13.8 mphPartly Cloudy
6:20 AM41.0 °F33.8 °F76 %30.15 in6.2 miWSW (240°)11.5 mphPartly Cloudy
7:20 AM39.2 °F33.8 °F81 %30.18 in6.2 miSW (220°)10.4 mphPartly Cloudy
8:20 AM39.2 °F33.8 °F81 %30.18 in6.2 miSW (230°)10.4 mphMostly Cloudy
9:20 AM41.0 °F33.8 °F76 %30.18 in6.2 miWSW (240°)10.4 mphMostly Cloudy
10:20 AM42.8 °F35.6 °F76 %30.18 in6.2 miSW (230°)11.5 mphMostly Cloudy
11:20 AM42.8 °F35.6 °F76 %30.15 in6.2 miSW (230°)12.7 mphMostly Cloudy
12:20 PM44.6 °F37.4 °F76 %30.09 in6.2 miSW (230°)16.1 mphMostly Cloudy
1:20 PM46.4 °F33.8 °F62 %30.06 in6.2 miWSW (240°)21.9 mphMostly Cloudy
2:20 PM46.4 °F33.8 °F62 %30.04 in6.2 miWSW (240°)18.4 mphMostly Cloudy
3:20 PM46.4 °F32.0 °F57 %30.04 in6.2 miSW (230°)20.7 mphMostly Cloudy
4:20 PM46.4 °F32.0 °F57 %30.01 in6.2 miSW (230°)20.7 mph33.4 mphMostly Cloudy
5:20 PM46.4 °F32.0 °F57 %30.01 in6.2 miSW (230°)15.0 mphMostly Cloudy
6:20 PM46.4 °F32.0 °F57 %30.01 in6.2 miWSW (240°)24.2 mphMostly Cloudy
7:20 PM46.4 °F33.8 °F62 %30.01 in6.2 miWSW (250°)25.3 mph39.1 mphMostly Cloudy
8:20 PM44.6 °F35.6 °F71 %30.04 in6.2 miWest (260°)17.3 mphRainLight Rain
9:20 PM42.8 °F39.2 °F87 %30.04 in6.2 miWest (260°)13.8 mphRainLight Rain
10:20 PM44.6 °F39.2 °F81 %30.01 in6.2 miWSW (240°)13.8 mphRainLight Rain
11:20 PM42.8 °F37.4 °F81 %30.04 in6.2 miWest (270°)13.8 mphMostly Cloudy
Hourly data recorded from ETHL, located miles away from Leipheim, Germany







STORIES FROM OUR PARTNERS